vendredi 29 Mai 15
20 : 30

départ 2014Courir à Brive est la plus grande course sur route de la région. Elle attire bien sur l’élite grâce à son parcours rapide et son label national.

Mais surtout tous les amoureux de la course à pied qui viennent  se mesurer au chronomètre ou pour le plaisir voire par défi. Les challenges par équipe amène encore plus de convivialité à cette course.

Cette année la course revient sur le site de la Guierle. Départ avenue de Paris et arrivée face à la halle Brassens.

Résultat : challenge entreprise

Résultat : Challenge copain

Résultats: Challenge Ecole

 

 

Pour plus de renseignement Le site web de courir à Brive






Informations :

Inscription en ligne arrétée le 28/05/2015 à 21:00 par carte bancaire, 22/05/2015 par chèque (les chèques doivent être reçus avant le 28 mai 2015.
ClDosNomVoirTempsS.Cat.CC.ClubFFA
11171BONNET Anthony00:07:12 / 07:12:08 MMI1S/L CA BRIVE
21064VABRE Emilien00:07:13 / 07:13:10 MBE1
31036BARTOLI Yonas00:07:14 / 07:14:14 MBE2
41142NOUHAUD Paul00:07:15 / 07:15:08 MMI2
51164CLOS Matteo00:07:16 / 07:16:13 MMI3tulle triathlon
61161PERRIER Sacha00:07:18 / 07:18:13 MMI4
71178LEFRANC Bastien00:07:31 / 07:31:15 MMI5cabanis
81166GARRELOU Maxime 00:07:33 / 07:33:10 MMI6tulle triathlon
91070AUTHIER Robin00:07:38 / 07:38:09 MBE3S/L CA BRIVE
101167JOANNY Gabriel00:07:38 / 07:38:15 MMI7
111005CHAUVET Paul00:07:42 / 07:42:12 MBE4S/L CA BRIVE
121011VEDRINES Bastien00:07:43 / 07:43:17 MBE5
131174MOURGUY Yanis00:07:44 / 07:44:08 MMI8S/L CA BRIVE
141160MARTY Marius00:07:46 / 07:46:12 MMI9
151143MARIEL Jean-david00:07:49 / 07:49:09 MMI10arsonval
161030NOUHAUD Florian00:07:53 / 07:53:16 MBE6
171173FIANCETTE Enzo00:07:56 / 07:56:09 MMI11
181022PAIN Thèo00:07:57 / 07:57:11 MBE7
19995TRIVIDIC Arthur00:08:00 / 08:00:15 MBE8
20994LAVERGNE Samuel00:08:04 / 08:04:12 MBE9cabanis
211156AMLAL Malika00:08:05 / 08:05:15 FMI1S/L TULLE AC
221060DEWEZ Hugo00:08:08 / 08:08:15 MBE10cabanis
231153JOSEPH Simon00:08:10 / 08:10:12 MMI12S/L CA BRIVE
241176LEBAS Charles00:08:12 / 08:12:14 MMI13
251149LE MOAL Titouan00:08:13 / 08:13:17 MMI14
261062INCONNU 058002e468c500:08:14 / 08:14:17 MSE1
271089LEFRANC Benjamin00:08:17 / 08:17:09 MBE11cabanis
281046CONGRATEL Louis00:08:19 / 08:19:13 MBE12S/L CA BRIVE
291016REYNES Enzo00:08:25 / 08:25:09 MBE13S/L ES USSEL
301165CHENAF Clement00:08:25 / 08:25:13 MMI15S/L CA BRIVE
311007RODRIGUEZ Alexandre00:08:26 / 08:26:09 MBE14S/L ATHLETISME ST PANTALEON
32997VIER Lucas00:08:28 / 08:28:09 MBE15S/L ATHLETISME ST PANTALEON
331170DE SOUSA PEDREIRA Marco00:08:29 / 08:29:15 MMI16
341061TADJI Abdelkader00:08:30 / 08:30:14 MBE16
351147GAUTHIER Enzo00:08:31 / 08:31:14 MMI17
361059MOREAU Charline00:08:32 / 08:32:13 FBE1S/L CA BRIVE
371017COMBES Max00:08:33 / 08:33:12 MBE17S/L CA BRIVE
381158RONGERE Elisa00:08:33 / 08:33:13 FMI2VELAY ATHLETISME
391048LAGARDE Mathis00:08:36 / 08:36:15 MBE18
401144BASQUE-FRIBAULT Martin00:08:37 / 08:37:10 MMI18
411175DESENLIS Nicolas00:08:38 / 08:38:10 MMI19
421146GAUTHIER Tom00:08:40 / 08:40:16 MMI20
431148LEFEVRE Clément00:08:41 / 08:41:08 MMI21
441065UTGES Valentin00:08:42 / 08:42:14 MBE19
451057GOUBY Edgar00:08:43 / 08:43:10 MBE20
461001DAUBECH Marc00:08:44 / 08:44:13 MBE21
471068MALEVILLE Baptiste00:08:46 / 08:46:12 MBE22
491031GRELLIER Antoine00:08:48 / 08:48:10 MBE23thierry
501181BOUCIF Dounia00:08:50 / 08:50:14 FMI3
511056DESENLIS Enzo00:08:53 / 08:53:11 MBE24
521015BARRE Aurelien00:08:55 / 08:55:11 MBE25
531004BELOT Antonin00:08:55 / 08:55:17 MBE26
541012SCLAFER Thomas00:09:00 / 09:00:09 MBE27servix
55996BLANCHARD Willy00:09:03 / 09:03:10 MBE28
561043BUCHE Mathilde00:09:07 / 09:07:12 FBE2brive triathlon
571179REGAUDIE Felix00:09:07 / 09:07:16 MMI22
581162JAUBERT Leon00:09:07 / 09:07:16 MMI23S/L CA BRIVE
591058LABARBARIE Quentin00:09:12 / 09:12:13 MBE29
601177KAID Nadia00:09:14 / 09:14:08 FMI4
611025ROMME Cedric00:09:14 / 09:14:14 MBE30
621141VIDAL Thibault00:09:15 / 09:15:14 MMI24
631053ABRAHAM-SEYE Titouan00:09:16 / 09:16:14 MBE31
64991TROGNO Emeline00:09:16 / 09:16:16 FBE3
651054PORTE Clara00:09:17 / 09:17:17 FBE4S/L CA BRIVE
661050DUPIN Emilie00:09:21 / 09:21:16 FBE5
671052DUPUY Leo00:09:22 / 09:22:09 MBE32
681066MARLOT Gaelle00:09:25 / 09:25:14 FBE6
691003TREILLE Lisa00:09:28 / 09:28:10 FBE7S/L CA BRIVE
701163BARRY Clement00:09:30 / 09:30:10 MMI25
711049CANNESANT Hugo00:09:33 / 09:33:16 MBE33
721055LARIVET Milan00:09:35 / 09:35:17 MBE34
731033DE ALMEIDA Louis00:09:37 / 09:37:09 MBE35
741041SILVESTRINI Christophe00:09:37 / 09:37:12 MBE36team ravito
75993DE OLIVEIRA Morgane00:09:42 / 09:42:09 FBE8
761045LE PELTIER Hugo00:09:43 / 09:43:10 MBE37S/L CA BRIVE
771034VANDER CRUYSSEN Théo00:09:45 / 09:45:09 MBE38
781010PECHET Elyna00:09:46 / 09:46:08 FBE9S/L CA BRIVE
791091CLER Adrien00:09:50 / 09:50:11 MBE39
801014RIEGER Noa00:09:58 / 09:58:16 MBE40
811035VANDER CRUYSSEN Jules00:10:00 / 10:00:15 MBE41
821051RONDEAU Romane 00:10:00 / 10:00:17 FBE10
831180PONS Lucas00:10:00 / 10:00:17 MMI26
841037FREYSSELINE Enzo00:10:01 / 10:01:09 MBE42
851027BONNET Lucie00:10:08 / 10:08:09 FBE11
861040AZCARATE Baptiste00:10:11 / 10:11:09 MBE43
871009RONTEIX-RAYON Lola00:10:11 / 10:11:11 FBE12S/L CA BRIVE
881013SOK Apsara00:10:11 / 10:11:12 FBE13
89992TOUSSET Pauline00:10:13 / 10:13:17 FBE14
90999VIDAL Théo00:10:15 / 10:15:17 MBE44
911154BAYLE Louis00:10:16 / 10:16:10 MMI27
921002SOARES DE MELO Nathan00:10:18 / 10:18:12 MBE45
931000VIDAL Benjamin00:10:25 / 10:25:11 MBE46
941169KURKOWSKI Julie00:10:25 / 10:25:11 FMI5
951024MAINIE Alexis00:10:28 / 10:28:09 MBE47
961028MARCHI Olga00:10:28 / 10:28:09 FBE15S/L CA BRIVE
971006CHAMBOST Manon00:10:28 / 10:28:14 FBE16squash malemort
981159PRIGENT Gaëlle00:10:31 / 10:31:10 FMI6
991172PERTUIS Lina00:10:34 / 10:34:15 FMI7
1001150PECHET Tanya00:10:34 / 10:34:17 FMI8S/L CA BRIVE
1011152COCQUET Zoe00:10:35 / 10:35:11 FMI9
1021032HENRY Emeline00:10:44 / 10:44:17 FBE17
1031071MALAGNOUX Quentin00:10:51 / 10:51:16 MBE48
104998SURUCU Ismail00:10:54 / 10:54:10 MBE49
1051023SOMDECOSTE Emma00:10:55 / 10:55:12 FBE18
1061042PRUDHOMME Ilona00:10:56 / 10:56:10 FBE19
1071038CAZES Sacha00:11:02 / 11:02:17 MBE50
1081029GAUTHIER Emma00:11:05 / 11:05:17 FBE20servix
1091063VABRE Ludivine00:11:09 / 11:09:17 FBE21
1101020JALES Lydia00:11:31 / 11:31:17 FBE22louis pons
1111021COSTA Oceane00:11:35 / 11:35:09 FBE23louis pons
1121067BONNET Fanny00:11:38 / 11:38:17 FBE24
1131151SUDRIE Marine00:11:44 / 11:44:13 FMI10S/L CA BRIVE
1141168KURKOWSKI Jade00:12:02 / 12:02:17 FMI11
1151072MEYNARD Laurine00:12:19 / 12:19:11 FBE25
1161069VACHERIE Lucile00:12:19 / 12:19:11 FBE26
1171039SCAGGIARI Elisa00:12:19 / 12:19:11 FBE27
1181157BORDESSOULLES Maele00:12:45 / 12:45:09 FMI12

(Cliquer sur les points rouge de la carte pour avoir des informations sur le parcours)

Dénivellé
Vitesse


78 Comments.

  • MURAT Laurent says:

    Bonjour,

    Voilà près deux mois et demi que cette nouvelle édition de Courir à Brive a eu lieu : et qu’est ce qui est revenu dans mes oreilles par une centaine (oui !!) de personnes de mon entourage à travers des connaissances dans BRIVE (amis en dehors du sport, collègues de travail, commerçants… ): « Laurent, j’ai entendu que l’animation était revenue sur la Place du XIV Juillet et votre (ou ton) repas d’après course dans la Salle Georges Brassens s’est bien passé (cette parole était un automatisme chez les personnes qui savent que je pratique la course à pied dès qu’ils m’ont croisé après cette nouvelle édition) ? J’ai tout de suite stoppé tout le monde en leur communiquant qu’il y avait un manque de celui-ci par rapport à l’époque où il avait lieu.
    J’espère que lors des prochaines éditions celui-ci sera de nouveau d’actualité pour faire plaisir dans la Salle Georges Brassens (course qui a perdu un peu de sa convivialité suite à cela) et nous pourrons ainsi mieux suivre la remise des récompenses qui n’a pas été facile cette année suite au manque d’accessoires même pour s’asseoir.
    Amitiés sportives.
    Laurent

    • Christophe Phelizon says:

      Pas de problème pour le repas en 2016 si c’est toi qui l’organise.

      • MURAT LAURENT says:

        Bonjour Christophe,

        Cela n’était qu’une suggestion d’amélioration de l’épreuve suite aux discussions que j’ai eu.

        Je comprends tout à fait que l’on éprouvera toujours le besoin de faire remonter des améliorations vis à vis d’un organisateur de course.

        Sportivement

        Laurent

  • PONCHARAL says:

    Les douches du Stadium seraient bienvenues puisque facilité du stationnement à proximité –

    • MURAT Laurent says:

      Bonsoir Mr PONCHARAL,

      L’arrivée d’une compétition demande à ce que l’on ait les douches au plus prêt et puis tout le monde n’a pas de voitures donc les plus prêt sont celles du Stade LECLERC.

      Quand à l’absence de douches, j’espère que cela ne va pas se renouveler l’an prochain suite au suivi médical spécialisé que j’ai autour de moi qui j’espère n’aura pas besoin d’intervenir en ce manque.

      Laurent

  • Benier says:

    Bonjour,
    Très bonne soirée, cependant:
    Déçu par absence d’animations;
    Espace ravito à l’arrivée trop restreint, et insuffisant ..Déjà signalé les années précédentes !!!!
    Bravo pour les bénévoles et l’organisation.
    Jean B.

  • black-kiki says:

    Pour la première fois, j’ai pu découvrir cette épreuve de l’arrière, cela permet d’avoir une vision critique plus juste et briser quelques à priori que je m’étais construit. Il est évident que victime de son succès, Courir à Brive s’expose aux critiques et mécontentements mais sachons également savourer cette grande fête à sa juste valeur, cet évènement à la fois festif et dédié à la performance pure est exceptionnel !! Mais oui, nous visons la perfection et voici mon sentiment qui se détache et me semble être le meilleur pour l’avenir : un retour à deux départs décalés (quelque soit le parcours sélectionné), un pour les plus de 45′ et l’autre pour les moins mais avec un classement global additionnant les deux courses afin d’éviter les calculs mesquins donc pas de classement propre à la « populaire ». Ainsi le stress pour les plus rapides de devoir faire une séance de slalom disparaîtrait et ramènerait la sérénité chez les moins rapides ne se sentant plus agressé … La clé pour combler tout le monde est ici mais ce n’est que mon opinion ! Ou alors un circuit en une seule boucle !!???
    En revanche, le « piétinement » du départ n’est pas si long et difficile à endurer que ça, il faut, il est vrai savoir jouer avec le 1er km mais la solution miracle ne peut exister : une voie plus large serait contrainte à rétrécissement à un moment donné et à un engorgement tôt ou tard.
    Le ravitaillement de l’arrivée sera certainement amélioré et élargit, je ne m’en fais pas pour ça mais le civisme des coureurs doit l’être également et l’idée lue dans les commentaires précédents de jeter ses déchets dans des contenants en carton ou autre me paraît excellente, cela est valable pour les ravitaillements intermédiaires aussi …!!




Le resenti (3 choix possibles)

Loading ... Loading ...

Le parcours (4 choix possibles)

Loading ... Loading ...

Ravitaillement (3 choix possibles)

Loading ... Loading ...

Les récompenses (3 choix possibles)

Loading ... Loading ...

La météo (2 choix possibles)

Loading ... Loading ...